This is the latest recevied weather packets stored in our database for station/object EA8BQU-10. If no packets are shown the sender has not sent any weather packets the latest 10 day(s).
| Time | Temp. | Humidity | Pressure | Rain* | Wind** | Luminosity | Snow |
|---|---|---|---|---|---|---|---|
| 1777030226 | 20° C | 91% | 1019 hPa | - | - | - | - |
| 1777029326 | 19.44° C | 90% | 1019 hPa | - | - | - | - |
| 1777028426 | 19.44° C | 88% | 1019.1 hPa | - | - | - | - |
| 1777027523 | 19.44° C | 92% | 1019.1 hPa | - | - | - | - |
| 1777026621 | 19.44° C | 92% | 1019.3 hPa | - | - | - | - |
| 1777025717 | 18.89° C | 94% | 1019.1 hPa | - | - | - | - |
| 1777024817 | 19.44° C | 94% | 1019.2 hPa | - | - | - | - |
| 1777023917 | 19.44° C | 96% | 1019.1 hPa | - | - | - | - |
| 1777023016 | 19.44° C | 96% | 1019 hPa | - | - | - | - |
| 1777022116 | 18.89° C | 96% | 1018.8 hPa | - | - | - | - |
| 1777021216 | 18.89° C | 100% | 1018.8 hPa | - | - | - | - |
| 1777020316 | 18.89° C | 100% | 1018.6 hPa | - | - | - | - |
| 1777019416 | 18.89° C | 100% | 1018.7 hPa | - | - | - | - |
| 1777018516 | 19.44° C | 100% | 1018.5 hPa | - | - | - | - |
| 1777017616 | 18.89° C | 100% | 1018.4 hPa | - | - | - | - |
| 1777016715 | 18.33° C | 100% | 1018.3 hPa | - | - | - | - |
| 1777015814 | 18.33° C | 100% | 1018.3 hPa | - | - | - | - |
| 1777014914 | 17.78° C | 100% | 1018 hPa | - | - | - | - |
| 1777014013 | 17.78° C | 100% | 1017.8 hPa | - | - | - | - |
| 1777013114 | 17.78° C | 100% | 1017.6 hPa | - | - | - | - |
| 1777012213 | 17.78° C | 100% | 1017.6 hPa | - | - | - | - |
| 1777011313 | 17.78° C | 100% | 1017.6 hPa | - | - | - | - |
| 1777010413 | 18.33° C | 100% | 1017.7 hPa | - | - | - | - |
| 1777009512 | 18.33° C | 100% | 1017.5 hPa | - | - | - | - |
| 1777008624 | 17.78° C | 100% | 1017.3 hPa | - | - | - | - |
* Rain since midnight (hover to see other rain measurements)
** Current wind speed in m/s (hover to see current wind gust speed)